User: anonymous   Login
Location: Unspecified
(0.0000°N, 0.0000°E)
Time: 17:11:42
(UTC+00:00)
Language:

OPTUS D1 - Orbit

View from above orbital plane
View from above orbital plane
View from above satellite
View from above satellite

Ground track
Ground track

The orbit data is extracted from the following two-line orbital elements,

1 29495U 06043B   15214.36248340 -.00000129  00000-0  00000+0 0  9997
2 29495 000.0530 280.7375 0003407 213.3212 107.0569 01.00271452 32318
Epoch (UTC): 02 August 2015 08:41:58
Eccentricity: 0.0003407
inclination: 0.0530°
perigee height: 35772 km
apogee height: 35800 km
right ascension of ascending node: 280.7375°
argument of perigee: 213.3212°
revolutions per day: 1.00271452
mean anomaly at epoch: 107.0569°
orbit number at epoch: 3231

The dashed part of the orbit path shows where the satellite is in the earth's shadow,  

DLR